Regional Weather Roundup
Issued by NWS

Home | Current Version | Previous Version | Text Only | Print | Product List | Glossary On
Versions: 1 2 3 4 5 6 7 8 9 10 11 12 13 14 15 16 17 18 19 20 21 22 23 24 25 26 27
000
ASUS46 KSEW 180810
RWRWA

WASHINGTON REGIONAL WEATHER ROUNDUP
NATIONAL WEATHER SERVICE SEATTLE WA
100 AM PDT FRI APR 18 2014

NOTE:"FAIR" INDICATES FEW OR NO CLOUDS BELOW 12,000 FEET WITH NO
SIGNIFICANT WEATHER AND/OR OBSTRUCTIONS TO VISIBILITY.

WAZ505-507>509-180900-
SEATTLE, TACOMA, EVERETT, AND VICINITY

CITY           SKY/WX    TMP DP  RH WIND       PRES   REMARKS
EVERETT        LGT RAIN  45  40  82 E5        29.92R
BOEING FIELD   CLOUDY    48  40  73 S6        29.94R
RENTON         CLOUDY    47  41  80 S7        29.94R
SEATAC AIRPORT CLOUDY    46  39  76 SW9       29.94R
JBLM-MCCHORD   PTCLDY    44  42  93 SW14      29.96R
PUYALLUP         N/A     43  41  93 SW9       29.97R
JBLM-FT LEWIS  MOCLDY    45  43  93 S10       29.97R
TACOMA NARROWS CLEAR     44  38  79 SW14G23   29.93R
$$

WAZ001-503-506-510-514-515-180900-
NORTH INTERIOR

CITY           SKY/WX    TMP DP  RH WIND       PRES   REMARKS
BELLINGHAM     CLOUDY    46  40  79 S6        29.87R
FRIDAY HARBOR  PTCLDY    45  39  79 SW10G20   29.89R
EASTSOUND      MOCLDY    46  41  81 S8        29.86R
PORT ANGELES   LGT RAIN  45  36  70 W16G24    29.92R
NAS WHIDBEY    MOCLDY    49  39  68 W25G32    29.91R
BURLINGTON     CLOUDY    46  41  81 W7G16     29.90R
$$

WAZ020-022-039-040-504-511-512-180900-
SOUTHWEST INTERIOR

CITY           SKY/WX    TMP DP  RH WIND       PRES   REMARKS
SHELTON        CLEAR     42  39  89 SW12      29.94R
OLYMPIA        CLOUDY    45  39  79 S14       29.98R
CHEHALIS       PTSUNNY   45  41  87 SW6       30.03R
KELSO          CLOUDY    46  39  76 S3        30.08R
VANCOUVER      PTCLDY    43  40  89 CALM      30.06R
SCAPPOOSE, OR  CLEAR     42  40  92 VRB3      30.05R
PORTLAND, OR   PTCLDY    45  42  89 SW5       30.07R
$$

WAZ021-516-517-180900-
WASHINGTON COAST

CITY           SKY/WX    TMP DP  RH WIND       PRES   REMARKS
FORKS          PTCLDY    44  40  85 W9        29.98R
HOQUIAM        PTCLDY    45  40  82 W7        30.01R
ASTORIA, OR    MOCLDY    47  39  74 NW10      30.05R
$$

WAZ019-023-024-040-518-519-180900-
CASCADE MOUNTAINS AND COLUMBIA GORGE

CITY           SKY/WX    TMP DP  RH WIND       PRES   REMARKS
STAMPEDE PASS  NOT AVBL
TROUTDALE, OR  MOCLDY    48  43  82 W3        30.05R
THE DALLES, OR LGT RAIN  48  40  73 W16       29.96R
$$

WAZ026-027-041>044-520-521-180900-
EAST SLOPES

CITY           SKY/WX    TMP DP  RH WIND       PRES   REMARKS
OMAK           CLOUDY    50  42  74 S7        29.66R
WENATCHEE      PTCLDY    48  36  63 NW17      29.76R
ELLENSBURG     CLEAR     42  32  67 NW16      29.80R
YAKIMA         CLEAR     49  31  49 SW18G24   29.83R
$$

WAZ028-034-035-180900-
COLUMBIA BASIN

CITY           SKY/WX    TMP DP  RH WIND       PRES   REMARKS
EPHRATA        PTCLDY    40  38  93 SW8       29.73R
MOSES LAKE     PTCLDY    48  38  68 SW14      29.75R
HANFORD        NOT AVBL
PASCO          PTCLDY    51  42  71 SW15      29.85R
HERMISTON, OR  MOCLDY    50  40  68 SW21G33   29.88R
$$

WAZ036>038-180900-
NORTHEAST WASHINGTON

CITY           SKY/WX    TMP DP  RH WIND       PRES   REMARKS
SPOKANE GEIGER CLOUDY    46  41  82 SW22G28   29.73R
SPOKANE FELTS  CLOUDY    48  43  82 SW17      29.74S
FAIRCHILD AFB  CLOUDY    45  42  91 S17G28    29.72S
COEURDALENE,ID CLOUDY    46  41  81 SW12      29.75S
DEER PARK      RAIN      45  43  93 S15       29.72S FOG
$$

WAZ029>033-180900-
SOUTHEAST WASHINGTON

CITY           SKY/WX    TMP DP  RH WIND       PRES   REMARKS
PULLMAN        CLOUDY    47  39  74 SW18G28   29.82R
LEWISTON, ID   LGT RAIN  49  42  77 SW5       29.83R
WALLA WALLA    CLOUDY    52  42  69 SW12      29.87R
PENDLETON, OR  CLOUDY    49  41  74 W17G25    29.89R
$$



USA.gov is the U.S. government's official web portal to all federal, state and local government web resources and services.